User: anonymous   Login
Location: Unspecified
(0.0000°N, 0.0000°E)
Time: 12:48:56
(UTC+00:00)
Language:

SDS-1 - Orbit

View from above orbital plane
View from above orbital plane
View from above satellite
View from above satellite

Ground track
Ground track

The orbit data is extracted from the following two-line orbital elements,

1 33497U 09002F   18200.50198402 +.00000020 +00000-0 +11860-4 0  9999
2 33497 098.3312 349.7649 0003184 080.5221 279.6344 14.70463992508564
Epoch (UTC): 19 July 2018 12:02:51
Eccentricity: 0.0003184
inclination: 98.3312°
perigee height: 657 km
apogee height: 662 km
right ascension of ascending node: 349.7649°
argument of perigee: 80.5221°
revolutions per day: 14.70463992
mean anomaly at epoch: 279.6344°
orbit number at epoch: 50856

The dashed part of the orbit path shows where the satellite is in the earth's shadow,  

DLR